When you browse on this site, cookies collect data to enhance your experience and personalize the content and advertising you see.
Visit our Privacy Policy to learn more. By continuing to use the site, you agree to this use of cookies and data.
  • In United Kingdom
  • List of Countries
  • For 7 days
  • Water Temperature
  • Weather Map
  • Weather Widgets
  • user-avatar
    Login

    Hourly Weather Abancay

    Today, 16 October, Wednesday

    Time Temperature Precipitation Wind Pressure Humidity
    00:00 +13°C° 0 mm 1 mps 544 mmHg 92%
    01:00 +13°C° 0 mm 1 mps 544 mmHg 91%
    02:00 +12°C° 0 mm 1 mps 544 mmHg 91%
    03:00 +11°C° 0 mm 0 mps 544 mmHg 91%
    04:00 +11°C° 0 mm 0 mps 543 mmHg 92%
    05:00 +12°C° 0 mm 0 mps 544 mmHg 88%
    06:00 +13°C° 0 mm 1 mps 545 mmHg 84%
    07:00 +14°C° 0 mm 1 mps 545 mmHg 80%
    08:00 +16°C° 0.1 mm 1 mps 546 mmHg 71%
    09:00 +17°C° 0.1 mm 2 mps 547 mmHg 63%
    10:00 +19°C° 0.1 mm 2 mps 547 mmHg 54%
    11:00 +20°C° 0.3 mm 3 mps 547 mmHg 51%
    12:00 +21°C° 0.3 mm 3 mps 547 mmHg 47%
    13:00 +22°C° 0.3 mm 3 mps 547 mmHg 43%
    14:00 +22°C° 0.2 mm 3 mps 546 mmHg 45%
    15:00 +22°C° 0.2 mm 4 mps 545 mmHg 47%
    16:00 +21°C° 0.2 mm 4 mps 545 mmHg 49%
    17:00 +19°C° 0.4 mm 3 mps 545 mmHg 60%
    18:00 +17°C° 0.4 mm 2 mps 544 mmHg 71%
    19:00 +15°C° 0.4 mm 2 mps 544 mmHg 81%
    20:00 +15°C° 0.6 mm 2 mps 545 mmHg 84%
    21:00 +15°C° 0.6 mm 1 mps 545 mmHg 86%
    22:00 +14°C° 0.6 mm 1 mps 545 mmHg 89%
    23:00 +14°C° 0.2 mm 1 mps 545 mmHg 89%

    Tomorrow, 17 October, Thursday

    Time Temperature Precipitation Wind Pressure Humidity
    00:00 +14°C° 0.2 mm 1 mps 545 mmHg 90%
    01:00 +14°C° 0.2 mm 1 mps 545 mmHg 91%
    02:00 +13°C° 0.1 mm 1 mps 544 mmHg 91%
    03:00 +13°C° 0.1 mm 1 mps 543 mmHg 92%
    04:00 +13°C° 0.1 mm 1 mps 543 mmHg 92%
    05:00 +13°C° 0.2 mm 1 mps 543 mmHg 91%
    06:00 +13°C° 0.2 mm 1 mps 544 mmHg 89%
    07:00 +14°C° 0.2 mm 1 mps 544 mmHg 87%
    08:00 +15°C° 0.3 mm 1 mps 545 mmHg 80%
    09:00 +16°C° 0.3 mm 1 mps 545 mmHg 72%
    10:00 +18°C° 0.3 mm 2 mps 546 mmHg 65%
    11:00 +19°C° 0.7 mm 2 mps 546 mmHg 61%
    12:00 +20°C° 0.7 mm 3 mps 546 mmHg 58%
    13:00 +21°C° 0.7 mm 3 mps 545 mmHg 54%
    14:00 +20°C° 0.7 mm 3 mps 545 mmHg 57%
    15:00 +20°C° 0.7 mm 4 mps 545 mmHg 59%
    16:00 +19°C° 0.7 mm 4 mps 544 mmHg 61%
    17:00 +18°C° 0.5 mm 3 mps 544 mmHg 71%
    18:00 +16°C° 0.5 mm 3 mps 544 mmHg 80%
    19:00 +14°C° 0.5 mm 2 mps 543 mmHg 89%
    20:00 +14°C° 0.6 mm 2 mps 544 mmHg 90%
    21:00 +14°C° 0.6 mm 2 mps 544 mmHg 90%
    22:00 +14°C° 0.6 mm 2 mps 545 mmHg 90%
    23:00 +13°C° 1.8 mm 2 mps 544 mmHg 91%

    Day after tomorrow, 18 October, Friday

    Time Temperature Precipitation Wind Pressure Humidity
    00:00 +13°C° 1.8 mm 2 mps 544 mmHg 91%
    01:00 +12°C° 1.8 mm 2 mps 543 mmHg 91%
    02:00 +12°C° 0.5 mm 2 mps 543 mmHg 90%
    03:00 +12°C° 0.5 mm 2 mps 543 mmHg 88%
    04:00 +12°C° 0.5 mm 1 mps 543 mmHg 87%
    05:00 +13°C° 0.3 mm 1 mps 543 mmHg 86%
    06:00 +12°C° 0.3 mm 0 mps 544 mmHg 84%
    07:00 +12°C° 0.3 mm 0 mps 544 mmHg 83%
    08:00 +13°C° 0.3 mm 1 mps 544 mmHg 82%
    09:00 +14°C° 0.3 mm 1 mps 544 mmHg 82%
    10:00 +14°C° 0.3 mm 2 mps 545 mmHg 81%
    11:00 +15°C° 0.4 mm 2 mps 544 mmHg 79%
    12:00 +15°C° 0.4 mm 2 mps 544 mmHg 76%
    13:00 +16°C° 0.4 mm 2 mps 543 mmHg 73%
    14:00 +16°C° 0.2 mm 2 mps 543 mmHg 71%
    15:00 +17°C° 0.2 mm 2 mps 543 mmHg 69%
    16:00 +17°C° 0.2 mm 2 mps 543 mmHg 68%
    17:00 +16°C° 0 mm 2 mps 543 mmHg 73%
    18:00 +15°C° 0 mm 1 mps 543 mmHg 78%
    19:00 +14°C° 0 mm 1 mps 543 mmHg 84%
    20:00 +13°C° 0 mm 1 mps 543 mmHg 86%
    21:00 +13°C° 0 mm 1 mps 543 mmHg 89%
    22:00 +12°C° 0 mm 1 mps 543 mmHg 91%
    23:00 +11°C° 0 mm 0 mps 543 mmHg 92%

    19 October, Saturday

    Time Temperature Precipitation Wind Pressure Humidity
    00:00 +10°C° 0 mm 0 mps 543 mmHg 93%
    01:00 +10°C° 0 mm 0 mps 542 mmHg 94%
    02:00 +10°C° 0 mm 0 mps 542 mmHg 94%
    03:00 +10°C° 0 mm 0 mps 542 mmHg 93%
    04:00 +10°C° 0 mm 0 mps 542 mmHg 93%
    05:00 +11°C° 0 mm 0 mps 543 mmHg 89%
    06:00 +12°C° 0 mm 0 mps 544 mmHg 85%
    07:00 +12°C° 0 mm 0 mps 545 mmHg 81%
    08:00 +15°C° 0.3 mm 1 mps 545 mmHg 76%
    09:00 +16°C° 0.3 mm 2 mps 546 mmHg 71%
    10:00 +17°C° 0.3 mm 3 mps 547 mmHg 66%
    11:00 +17°C° 1.1 mm 3 mps 546 mmHg 70%
    12:00 +16°C° 1.1 mm 3 mps 545 mmHg 73%
    13:00 +15°C° 1.1 mm 2 mps 544 mmHg 77%
    14:00 +15°C° 1 mm 2 mps 544 mmHg 78%
    15:00 +15°C° 1 mm 2 mps 543 mmHg 80%
    16:00 +14°C° 1 mm 2 mps 543 mmHg 81%
    17:00 +14°C° 0.4 mm 1 mps 543 mmHg 84%
    18:00 +13°C° 0.4 mm 1 mps 543 mmHg 87%
    19:00 +13°C° 0.4 mm 1 mps 543 mmHg 90%
    20:00 +13°C° 0 mm 1 mps 543 mmHg 89%
    21:00 +12°C° 0 mm 1 mps 544 mmHg 87%
    22:00 +11°C° 0 mm 0 mps 544 mmHg 86%
    23:00 +11°C° 0 mm 0 mps 543 mmHg 85%

    20 October, Sunday

    Time Temperature Precipitation Wind Pressure Humidity
    00:00 +11°C° 0 mm 0 mps 543 mmHg 85%
    01:00 +11°C° 0 mm 0 mps 543 mmHg 85%
    02:00 +10°C° 0 mm 0 mps 542 mmHg 85%
    03:00 +10°C° 0 mm 0 mps 542 mmHg 84%
    04:00 +10°C° 0 mm 0 mps 542 mmHg 84%
    05:00 +11°C° 0 mm 0 mps 543 mmHg 80%
    06:00 +12°C° 0 mm 0 mps 544 mmHg 76%
    07:00 +13°C° 0 mm 0 mps 544 mmHg 72%
    08:00 +15°C° 0 mm 1 mps 545 mmHg 65%
    09:00 +18°C° 0 mm 1 mps 546 mmHg 58%
    10:00 +19°C° 0 mm 2 mps 546 mmHg 51%
    11:00 +20°C° 0 mm 2 mps 546 mmHg 46%
    12:00 +21°C° 0 mm 2 mps 546 mmHg 41%
    13:00 +23°C° 0 mm 2 mps 546 mmHg 36%
    14:00 +22°C° 0 mm 3 mps 545 mmHg 36%
    15:00 +22°C° 0 mm 3 mps 545 mmHg 35%
    16:00 +22°C° 0 mm 3 mps 544 mmHg 35%
    17:00 +20°C° 0 mm 3 mps 544 mmHg 48%
    18:00 +18°C° 0 mm 2 mps 543 mmHg 60%
    19:00 +15°C° 0 mm 2 mps 543 mmHg 73%
    20:00 +15°C° 0 mm 2 mps 543 mmHg 79%
    21:00 +14°C° 0 mm 2 mps 543 mmHg 85%
    22:00 +13°C° 0 mm 1 mps 543 mmHg 91%
    23:00 +13°C° 0 mm 1 mps 543 mmHg 91%

    21 October, Monday

    Time Temperature Precipitation Wind Pressure Humidity
    00:00 +13°C° 0 mm 1 mps 543 mmHg 91%
    01:00 +13°C° 0 mm 1 mps 543 mmHg 92%
    02:00 +13°C° 0 mm 1 mps 543 mmHg 90%
    03:00 +13°C° 0 mm 1 mps 543 mmHg 89%
    04:00 +12°C° 0 mm 0 mps 543 mmHg 88%
    05:00 +13°C° 0 mm 0 mps 543 mmHg 84%
    06:00 +13°C° 0 mm 0 mps 544 mmHg 80%
    07:00 +14°C° 0 mm 0 mps 544 mmHg 76%
    08:00 +16°C° 0 mm 1 mps 545 mmHg 68%
    09:00 +18°C° 0 mm 2 mps 545 mmHg 60%
    10:00 +20°C° 0 mm 2 mps 546 mmHg 52%
    11:00 +21°C° 0.2 mm 3 mps 546 mmHg 49%
    12:00 +22°C° 0.2 mm 3 mps 546 mmHg 46%
    13:00 +22°C° 0.2 mm 3 mps 545 mmHg 44%
    14:00 +22°C° 0.3 mm 3 mps 545 mmHg 46%
    15:00 +22°C° 0.3 mm 4 mps 545 mmHg 47%
    16:00 +21°C° 0.3 mm 4 mps 544 mmHg 49%
    17:00 +19°C° 0.3 mm 3 mps 544 mmHg 60%
    18:00 +17°C° 0.3 mm 2 mps 544 mmHg 70%
    19:00 +15°C° 0.3 mm 2 mps 543 mmHg 81%
    20:00 +15°C° 0.2 mm 1 mps 543 mmHg 84%
    21:00 +14°C° 0.2 mm 1 mps 543 mmHg 88%
    22:00 +14°C° 0.2 mm 1 mps 544 mmHg 91%
    23:00 +13°C° 0 mm 1 mps 543 mmHg 91%
    Show more